Location: Ferintosh
(52.7647°N, 112.9692°W)
Time: 13:39:14
(UTC+00:00)

Transit 2A - Pass Details

Date: 22 May 2024
Orbit: 592 x 959 km, 66.7° (Epoch: 23 June)

Event Time Altitude Azimuth Distance (km) Brightness Sun altitude
Rises 11:40:28 0° 311° (NW) 3,230 9.1 1.2°
Reaches altitude 10° 11:43:17 10° 326° (NNW) 2,370 8.6 1.6°
Maximum altitude 11:47:38 23° 19° (NNE) 1,717 8.7 2.2°
Drops below altitude 10° 11:52:16 10° 71° (ENE) 2,556 10.8 2.8°
Sets 11:55:25 0° 85° (E) 3,548 10.8 3.2°
